GFSFLT2_con_sbcape_078.txt.gz
CAPE
2390 1837 1764 1321 1338 1459 1412 1252 1145 1120 1486 1169 922 646 852 703 688 820 1107 1038 1191 1126 923 721 532 244 62 4 0 6 228 140
1947 1869 1918 2099 2000 1123 1159 938 872 930 748 512 353 351 335 260 221 429 554 972 1019 906 710 506 274 79 1 0 0 0 152 103
2283 1847 1879 2033 2196 1931 954 891 791 570 501 297 279 615 294 383 280 424 486 521 580 571 387 214 103 30 0 0 1 86 59 48
2341 1846 1749 1977 1889 2145 1991 1710 1243 1051 1047 881 1006 507 379 494 279 339 286 230 303 242 154 43 100 210 91 1 117 66 38 29
2142 2325 2209 2126 1864 1756 2042 1636 1394 1371 1173 842 859 555 328 78 151 396 296 195 298 245 258 386 335 250 172 146 78 65 35 24
1913 1717 1674 1724 1612 1338 1547 1605 1524 1481 1240 938 518 442 234 145 124 207 144 244 183 471 685 423 331 182 183 98 52 25 25 16
1853 1535 1226 1141 1054 1032 978 1438 983 888 1194 1102 574 382 424 328 334 233 98 137 117 590 350 291 250 225 173 100 23 19 14 6
1884 1540 1325 1369 1147 752 781 753 917 608 722 966 888 534 333 184 146 243 109 38 89 345 246 286 237 209 177 69 22 6 6 10
1812 1331 967 1132 1132 570 369 346 491 546 336 568 325 246 319 125 105 158 90 44 71 234 244 201 181 165 136 67 7 3 3 9
1556 1022 1210 1211 730 332 120 98 259 397 239 273 179 189 258 200 115 78 18 1 47 185 172 161 154 162 124 37 16 12 3 10
1560 1141 1025 848 488 196 53 36 97 57 55 54 136 199 188 217 135 117 6 0 1 145 173 192 150 153 120 59 48 27 9 1
1470 840 851 652 440 127 31 137 55 16 8 15 17 28 92 75 161 18 20 1 1 125 194 173 180 165 54 76 76 53 32 21
1396 810 710 492 293 61 44 170 81 34 26 21 23 12 4 96 35 3 9 0 0 30 172 175 150 150 46 70 54 23 33 17
1278 926 512 392 264 13 25 16 50 107 75 59 85 185 90 4 3 4 1 1 0 97 169 154 148 134 96 81 35 40 27 27
1187 931 849 518 441 184 317 38 44 52 41 38 53 221 25 7 4 4 2 2 2 75 150 166 110 124 124 48 57 40 29 35
1165 1009 576 645 441 207 158 28 11 43 23 5 32 20 4 1 1 2 2 13 8 54 90 163 147 112 119 66 74 43 44 79
1210 981 514 519 290 133 116 31 24 54 17 11 15 9 6 1 2 2 2 4 90 161 118 138 117 109 85 123 123 109 118 77
975 719 341 392 305 150 62 12 34 111 23 30 8 5 5 5 3 2 0 0 51 76 26 38 80 81 73 72 104 107 108 108
395 560 189 149 179 81 70 66 66 35 64 14 21 10 5 2 2 4 0 0 2 13 22 20 32 64 116 121 131 143 122 105
127 313 41 50 80 51 69 39 13 17 50 91 78 35 43 46 2 1 2 0 0 0 0 2 14 25 91 128 150 134 132 122

GFSFLT2_con_sbcape_081.txt.gz
CAPE
2625 2001 1618 1213 1401 1616 1755 1708 1514 1341 1815 1172 1258 727 642 500 721 748 889 699 1033 1100 1038 871 799 513 321 119 55 24 380 249
2684 2402 2338 2191 2016 1382 1416 1483 1116 1126 1358 943 781 637 379 351 317 222 254 543 678 927 595 581 413 172 62 0 0 0 231 79
2355 2310 2416 2398 2170 1890 1288 1257 1108 883 820 558 450 924 578 378 58 37 138 300 282 438 351 232 60 40 12 0 0 77 92 84
2831 2149 2521 2400 1888 2453 2091 2015 1627 1412 956 1107 1128 1168 604 128 0 0 219 276 363 289 188 37 68 159 46 1 159 188 64 83
2408 2409 2475 2389 1978 2411 2428 2048 1744 1852 1403 1423 1207 1266 506 540 121 274 424 426 546 172 126 495 458 349 204 155 145 52 56 78
2176 2480 2356 2180 1832 2403 2189 1934 1906 1705 1466 1289 1294 1160 715 481 520 502 485 574 308 211 291 670 297 246 205 124 104 39 51 70
2209 2252 2047 1913 1962 1952 2070 1956 1860 2001 1488 1341 1209 879 658 195 226 293 270 425 242 185 220 580 339 181 154 83 35 43 43 57
2168 2258 1876 1735 1624 1496 1576 1904 1724 1695 1435 1369 1094 1054 746 441 115 300 515 337 114 93 137 280 347 140 131 60 55 30 7 16
2234 2350 2003 1891 1761 1355 1377 1327 1416 1118 1182 1240 984 934 859 663 506 400 232 122 63 69 100 266 253 132 130 97 48 11 2 13
2227 2087 1887 1817 1570 1325 898 1117 1264 933 1006 1029 853 628 706 178 133 142 150 70 69 70 85 272 149 140 35 69 33 9 7 10
2245 2047 1755 1767 1529 885 656 727 599 660 767 667 586 466 361 271 267 54 60 69 66 52 68 280 159 93 38 59 50 21 9 8
2221 1982 1856 1654 1234 676 737 379 259 261 201 216 432 426 163 334 109 16 36 28 45 38 75 188 146 119 32 53 88 47 19 18
2211 1947 1772 1463 1125 888 656 688 414 272 161 74 84 169 344 353 50 9 6 33 5 26 58 143 137 106 79 45 98 81 68 29
2125 1805 1610 1334 1041 717 494 460 575 421 290 187 48 61 186 33 47 4 13 15 2 1 57 92 153 113 35 54 60 49 50 31
2029 1751 1448 1184 937 658 432 174 295 164 298 372 143 269 242 192 14 7 18 1 0 1 32 78 104 106 124 55 39 32 36 53
1955 1747 1430 1183 946 611 454 346 107 312 223 251 200 146 255 142 13 4 6 1 1 0 47 76 89 116 137 140 94 31 48 55
1890 1693 1464 1181 1030 848 534 298 285 274 130 149 48 30 6 2 1 3 3 2 1 0 43 80 114 120 161 211 174 131 85 88
1790 1688 1463 1239 1187 791 471 300 266 325 158 126 18 15 6 2 1 3 5 5 2 0 43 107 141 162 179 160 141 122 102 84
1725 1641 1198 1256 1047 700 383 287 323 95 210 107 19 3 5 3 1 2 1 2 18 26 58 103 138 148 157 96 114 148 122 66
1579 1519 990 1123 1016 679 347 280 270 292 237 93 49 14 7 3 3 2 1 1 0 24 98 128 123 171 155 147 132 79 63 124

GFSFLT2_con_sbcape_084.txt.gz
CAPE
2319 1677 1415 1355 1500 1600 1649 1684 1587 1907 1969 1887 1790 1383 783 831 611 372 205 368 639 759 997 937 942 775 666 293 156 273 142 381
2995 2340 1874 1693 1499 1362 1521 1669 1529 1572 1433 1358 1329 892 785 547 402 35 162 232 315 626 641 820 559 462 363 168 23 121 128 186
3217 2804 2522 2439 2219 1555 1355 1463 1392 1151 1152 855 679 990 616 519 233 224 255 117 131 372 362 235 189 144 91 0 0 20 95 63
2776 2531 2843 2751 1956 2026 1841 1760 1569 1437 1299 1081 1336 1147 691 377 28 127 152 90 135 201 166 71 63 101 18 0 34 125 39 29
2901 2407 2905 2784 2150 2510 2307 2048 1816 1606 1557 1358 1380 1203 435 0 0 4 67 162 178 184 81 115 240 154 97 65 160 117 31 20
3051 2394 2486 2532 2150 2169 2217 2282 2096 1741 1637 1297 1242 974 229 60 0 10 111 134 209 177 127 239 310 247 192 187 153 57 22 23
2391 2569 2524 2566 2540 2106 2349 2335 1787 1731 1695 1413 1147 1019 611 629 334 128 163 192 213 171 161 194 176 153 197 170 14 67 34 21
2416 2568 2529 2371 2093 2091 2100 2110 2150 1898 1693 1373 1103 924 687 539 469 325 180 207 200 118 123 122 89 77 75 41 22 39 13 1
2510 2589 2338 1981 1758 1813 1677 1866 1853 1762 1524 1310 1147 884 603 277 176 222 120 188 158 52 70 74 85 94 34 55 42 21 3 0
2435 2350 2053 1956 1711 1508 1302 1197 1563 1312 1359 1216 1082 776 589 352 139 164 253 103 33 31 39 75 83 69 39 27 6 0 0 1
2364 2370 2107 2143 1865 1342 1040 932 1362 1154 1028 1103 902 684 447 369 248 219 52 39 28 41 45 68 62 49 29 24 4 0 0 7
2542 2266 1919 1943 1575 936 752 793 937 918 683 541 595 521 373 344 117 61 21 40 35 43 29 15 42 9 20 30 26 0 0 5
2573 2124 1786 1802 1045 811 741 527 547 398 312 195 366 341 321 146 69 27 24 31 39 28 14 37 43 18 22 33 34 25 9 10
2560 2098 1943 1777 1196 890 850 624 541 262 199 136 213 208 229 112 44 5 8 18 22 10 18 35 18 41 12 13 21 22 32 25
2416 1998 1971 1656 1247 1007 750 644 525 219 189 248 138 83 72 138 75 2 2 4 6 13 8 21 39 36 16 0 6 13 13 30
2282 2041 1819 1651 1304 936 636 400 395 215 108 232 185 167 131 123 7 1 1 13 4 4 7 22 33 22 44 21 20 7 0 7
2274 1992 1682 1461 1301 924 645 422 326 174 197 201 90 25 120 120 0 3 2 1 0 2 6 11 24 20 24 37 48 73 16 7
2257 1916 1584 1386 1300 926 802 502 291 201 129 52 52 2 1 6 4 1 4 3 1 0 9 20 29 31 43 53 72 86 80 32
2211 1911 1593 1464 1278 1223 805 735 349 274 129 78 10 2 3 5 2 2 2 1 1 0 8 18 27 25 24 66 77 92 81 83
1967 1832 1541 1431 1378 1088 767 497 232 229 206 65 5 2 1 3 1 1 1 2 1 3 10 16 10 11 36 70 85 92 59 63

GFSFLT2_con_sbcape_087.txt.gz
CAPE
1135 1338 1517 1586 1624 1578 1664 1958 2112 2113 2098 2086 2059 1843 1384 1034 872 596 282 299 268 418 877 929 958 742 528 411 224 243 203 269
1120 998 1095 1173 1207 1470 1495 1551 1468 1546 1731 1734 1935 1466 1027 753 490 470 483 181 110 164 519 718 782 414 329 199 185 264 191 134
1516 1253 1166 1050 1043 1229 1463 1561 1450 1408 1412 1311 1098 843 667 639 45 164 239 6 137 204 215 334 223 197 136 136 4 0 81 65
1973 1787 1661 1481 1653 1157 1014 1308 1136 973 1004 603 734 494 338 305 63 240 178 133 166 143 155 113 66 22 22 14 0 0 5 51
2021 1870 2092 1999 1540 1055 1099 1081 1005 913 806 572 807 515 173 215 166 189 71 109 55 88 102 81 65 37 2 0 0 0 0 44
2115 1727 2214 2026 1545 1526 1470 1366 1108 964 844 764 803 386 123 3 0 1 16 47 98 52 51 96 73 56 30 9 1 3 0 10
2257 1840 2065 1859 1543 1531 1418 1578 1389 1158 932 772 765 391 305 15 0 0 26 62 88 80 57 139 164 94 55 43 0 0 1 10
2319 2050 1985 1843 1592 1306 1242 1316 1114 1173 925 834 783 606 283 108 14 2 24 69 159 107 85 94 120 123 62 69 0 0 0 6
2331 1970 1972 1839 1415 1374 1178 1139 1102 1004 906 814 796 718 532 286 199 79 35 93 86 59 21 26 33 56 29 8 0 0 0 0
2271 2126 1848 1401 1329 1101 1067 920 1016 859 856 749 713 692 607 230 174 61 33 34 51 49 35 33 30 38 22 7 2 0 0 0
2117 1835 1541 1216 1110 934 867 861 901 681 765 832 725 624 444 199 34 34 50 22 7 4 3 20 41 55 34 2 0 0 0 2
1948 1675 1457 949 992 553 370 585 826 530 556 725 832 482 324 32 9 9 0 1 0 0 2 10 46 19 84 5 0 0 0 0
1872 1649 1499 1003 720 507 337 374 666 475 377 448 450 276 159 0 11 22 0 0 8 3 27 25 39 4 0 0 0 0 0 0
1914 1736 1481 771 603 417 234 245 426 273 220 287 375 169 56 8 22 3 2 3 16 19 7 17 17 13 0 1 2 5 15 0
1677 1563 1410 733 437 363 266 229 280 223 183 125 197 199 72 34 1 1 1 3 4 14 8 8 21 29 6 0 0 2 15 12
1579 1450 1375 665 484 412 443 469 406 251 183 161 46 43 97 55 41 1 1 4 13 5 0 0 9 13 1 0 0 0 0 7
1569 1487 1339 831 549 379 378 346 242 86 99 125 53 8 11 1 0 4 7 11 14 25 2 4 5 1 0 0 2 15 5 0
1554 1435 1357 852 526 440 419 296 245 138 79 51 6 0 1 1 0 1 15 14 11 18 4 0 0 5 12 5 16 26 14 13
1432 1295 1160 898 542 510 420 288 117 88 65 61 6 0 0 0 0 1 1 5 2 7 2 3 0 0 1 13 27 40 50 27
1407 1096 1003 861 642 561 529 249 101 100 95 46 1 0 0 0 1 2 1 0 1 0 3 4 5 3 3 16 29 37 20 2

GFSFLT2_con_sbcape_090.txt.gz
CAPE
1150 1409 1622 1636 1697 1672 1744 1938 1989 1973 1998 2012 2086 2040 1852 1671 1534 1213 953 782 684 701 571 618 523 631 415 251 283 283 208 223
1038 1108 1282 1246 1276 1498 1690 1888 1976 1979 1956 1903 1886 1915 1688 1165 994 919 724 684 596 533 333 331 385 306 229 149 227 266 224 214
992 978 974 980 987 1269 1546 1658 1746 1771 1623 1564 1492 1252 907 804 420 692 356 334 414 348 177 115 127 206 110 104 142 87 131 128
1051 916 944 919 1261 1163 1170 1382 1177 1227 1207 1101 887 635 385 254 128 449 62 63 179 255 186 123 145 105 65 13 0 0 36 71
1453 1160 1094 1115 1356 804 783 1110 902 791 813 526 370 251 380 83 21 198 59 165 137 147 88 96 105 33 38 0 0 0 0 25
1925 1712 1580 1494 1382 894 821 839 764 659 457 470 463 251 166 138 118 77 117 66 57 9 14 31 88 57 24 0 0 0 0 27
2103 2102 2028 1825 1473 1121 1046 993 860 722 403 666 467 127 22 66 3 79 150 103 103 2 2 89 114 76 18 6 0 0 6 26
2208 1875 2246 1899 1637 1377 1228 1186 1047 693 470 630 409 235 45 26 0 85 138 97 71 16 0 41 146 94 28 1 0 0 0 0
2304 1978 2032 1893 1532 1384 1032 919 944 880 599 517 489 138 80 22 1 12 93 76 68 66 17 36 28 77 34 0 0 0 0 0
2430 2262 2002 1738 1506 1263 908 782 789 803 584 531 480 293 219 130 76 2 28 207 80 28 4 6 0 29 19 0 0 0 0 0
2290 2242 2063 1739 1232 1145 810 713 553 402 483 520 427 428 323 284 207 141 40 71 72 9 10 14 16 23 24 7 0 0 0 0
2124 2140 2016 1688 1162 794 554 579 477 486 272 515 358 371 237 239 199 62 143 106 5 2 0 0 9 30 106 44 0 0 0 0
1761 2030 1690 1434 1073 689 529 731 511 277 220 230 342 335 268 150 6 25 158 11 0 0 0 0 9 41 84 0 0 0 0 0
1828 1829 1390 1490 1109 827 554 272 383 452 144 183 199 172 86 63 41 29 29 0 2 2 0 0 6 29 0 0 1 0 0 0
1710 1658 1375 1252 801 92 69 23 72 164 246 163 158 113 30 36 62 50 1 1 2 2 0 0 19 1 0 0 1 0 0 0
1674 1674 1413 818 320 276 213 240 196 254 334 124 113 127 21 11 34 13 0 2 1 1 1 4 27 1 1 0 0 0 0 0
1672 1640 1076 560 559 247 171 144 117 158 174 149 48 2 34 27 19 6 1 0 0 4 6 0 4 1 0 0 0 0 0 0
1591 1496 938 598 446 239 208 184 134 182 191 171 82 36 22 14 38 27 1 0 6 17 16 1 5 0 0 0 0 0 0 0
1437 1263 757 587 329 228 199 243 188 194 117 98 90 43 32 42 8 11 10 2 5 34 29 17 5 0 0 0 0 0 1 2
1383 1085 625 341 208 172 185 165 156 132 115 123 21 0 1 0 1 1 3 0 6 24 45 24 2 0 0 0 0 2 8 13

GFSFLT2_con_sbcape_093.txt.gz
CAPE
1344 1596 1734 1758 1865 1926 1927 1891 1884 1872 1928 2056 2170 2078 1967 1916 1839 1748 1632 1085 995 953 890 844 842 732 535 261 302 249 175 170
1157 1374 1496 1432 1473 1590 1726 1943 1903 1870 1889 1915 1983 1877 1814 1749 1660 1546 1308 1063 957 930 740 597 507 361 246 156 212 231 170 197
887 1049 1100 1098 1186 1349 1624 1873 1926 1894 1881 1819 1621 1508 1447 1355 964 1087 1035 741 717 722 425 370 180 112 154 105 166 155 121 141
709 817 801 538 1114 1191 1275 1598 1663 1523 1461 1333 1186 962 778 536 583 746 628 462 537 264 136 19 82 58 107 120 46 69 68 92
761 703 842 940 1190 1021 1155 1387 985 1024 1031 857 671 431 605 74 142 91 13 64 89 122 59 30 6 72 63 53 13 33 3 25
1070 826 871 997 1033 954 944 1086 978 790 667 427 586 663 447 117 37 54 0 16 10 56 112 112 39 23 82 50 3 19 0 0
1470 1003 958 1046 1024 829 787 994 1011 778 362 466 641 359 234 212 114 20 11 0 0 1 52 93 24 53 84 41 7 11 6 0
1905 1517 1325 1372 1383 937 808 809 805 605 384 680 509 199 48 57 0 9 0 0 8 0 1 26 18 59 64 39 3 7 0 4
2067 1975 1895 1769 1678 1255 947 911 760 663 497 607 339 188 16 0 0 14 2 18 21 0 0 0 68 55 80 32 0 0 0 2
2152 2186 2186 1976 1752 1520 1206 1000 895 800 537 625 395 132 16 0 0 20 9 17 52 17 0 1 29 112 18 17 0 0 0 0
1579 2251 2117 2167 1816 1586 1254 949 1043 911 567 631 533 183 48 4 0 0 3 2 1 33 4 2 0 7 2 1 0 0 2 0
652 2182 2234 2189 1608 1211 870 606 529 722 679 639 528 384 187 148 45 7 3 1 22 7 1 2 0 1 3 2 0 0 0 0
84 1950 2132 2055 1550 1359 1198 1201 771 610 553 544 438 397 259 236 124 41 0 16 6 12 3 1 0 3 43 1 1 0 1 0
25 1671 2001 1975 1730 1535 1243 1387 832 658 407 401 420 247 197 223 117 62 77 100 57 1 0 1 0 0 24 0 1 1 1 0
653 1486 1901 1923 1709 823 208 179 120 123 241 348 215 152 133 192 64 178 106 21 11 0 0 1 0 12 0 0 3 0 0 0
652 1571 1783 1816 1386 770 517 776 729 769 769 510 172 91 101 95 55 138 124 13 0 0 1 1 0 3 0 0 0 0 0 1
464 1644 1657 1636 1071 876 555 540 349 98 229 194 146 75 93 173 186 129 19 0 0 1 4 1 0 0 3 0 0 0 0 0
621 1522 1510 1265 879 543 613 266 85 104 110 111 84 60 117 133 56 54 24 2 1 0 0 0 5 3 0 0 0 0 0 0
81 1682 1492 883 805 377 276 108 98 65 68 127 104 105 59 50 120 51 10 12 2 0 2 6 5 1 0 0 0 0 0 0
3 1582 1174 851 546 319 153 77 70 55 55 83 123 134 127 34 1 6 27 12 13 15 11 17 12 15 1 1 0 0 0 0

GFSFLT2_con_sbcape_096.txt.gz
CAPE
1581 1768 1872 1797 1844 1838 1847 1789 1805 1885 1974 2049 2219 2224 2093 2005 2004 2142 1973 1541 1439 1375 1128 1029 1050 1005 596 403 358 323 247 291
1364 1417 1726 1651 1586 1649 1697 1753 1788 1837 1895 1961 2040 1982 1953 1906 1859 1870 1687 1230 1250 1198 917 982 913 637 221 192 223 238 141 172
926 1090 1258 1421 1538 1483 1641 1742 1807 1846 1880 1868 1853 1521 1631 1634 1531 1577 1346 976 1020 918 770 664 536 254 168 145 148 122 89 109
762 781 899 1038 1264 1356 1430 1672 1803 1774 1693 1552 1310 1231 1122 1103 1023 1311 1018 709 817 601 627 323 185 62 83 101 76 89 69 54
484 498 654 645 918 1177 1315 1222 1298 1259 1335 1263 1055 789 722 457 497 475 339 441 277 168 12 2 0 47 50 54 42 63 84 49
943 585 528 613 929 1063 1177 1187 978 1066 1033 786 1038 1025 824 168 312 34 4 1 2 0 1 0 0 21 57 37 12 40 41 19
1352 843 709 764 781 889 1028 1182 1149 1087 792 714 1121 1034 903 408 222 49 0 0 0 0 0 1 4 86 114 11 9 11 19 13
1651 1151 914 709 842 869 855 956 991 806 775 988 1034 857 648 372 295 91 22 0 0 0 0 3 74 93 14 7 7 17 18 11
1038 1613 1164 882 970 786 752 779 676 574 641 830 691 563 383 169 64 31 2 0 0 1 0 0 1 2 3 24 8 40 16 8
0 1617 1568 1218 1123 1166 963 763 737 656 562 678 564 383 156 87 32 25 0 0 2 0 0 2 13 0 7 17 15 24 5 1
0 1004 1775 1686 1484 1448 1254 980 891 655 595 627 434 239 102 69 39 18 2 2 5 3 3 0 8 3 3 23 6 27 6 10
0 266 1722 1995 1954 1664 1467 1202 1105 993 643 650 457 232 63 65 57 19 14 4 4 2 2 1 8 15 32 29 5 7 17 15
0 13 1553 2045 2215 1775 1524 1354 1318 1217 893 718 583 348 203 208 115 15 12 18 1 0 6 7 2 11 4 1 1 1 1 1
0 0 885 2007 2026 1955 1684 1645 1360 1302 1029 757 714 477 327 301 193 87 13 1 2 18 20 12 7 23 5 0 0 2 1 1
0 0 266 1790 1980 1940 813 990 684 609 701 541 376 424 277 254 182 100 76 42 35 30 19 2 16 24 0 0 1 0 3 1
0 0 0 1703 1947 1848 1499 1535 1253 1072 794 517 218 178 260 212 152 115 56 113 131 37 7 0 0 1 1 0 0 0 0 2
0 0 5 1489 1900 1673 1346 1387 1221 876 776 1 185 148 58 155 131 68 143 111 81 28 4 1 0 2 2 0 0 0 0 0
0 0 336 1563 1760 1459 1058 1166 388 737 711 423 307 108 110 161 185 142 87 53 45 10 4 3 2 4 1 0 0 0 0 0
2 2 163 1550 1503 1298 904 768 308 492 578 466 265 250 200 177 118 60 39 19 35 4 4 2 5 5 1 0 0 0 0 0
3 3 2 1342 1206 1118 757 155 193 210 191 158 182 214 214 122 61 50 2 17 27 6 1 1 2 6 0 0 0 0 0 0

GFSFLT2_con_sbcape_099.txt.gz
CAPE
2113 2295 2157 1741 1844 1821 1717 1655 1704 1851 1977 2119 2199 2135 2134 2165 2204 2119 2323 2111 1853 1718 1465 1269 1278 1243 934 585 581 617 1110 1462
1710 1876 2018 2231 2381 1634 1613 1572 1619 1708 1856 1993 2101 1995 1935 1991 2035 2043 2151 1698 1574 1461 1275 1156 1232 1108 655 435 451 408 1070 1248
1275 1540 1687 1866 1957 2149 1557 1537 1595 1673 1843 1831 1934 2249 2274 2179 2067 1992 1647 1405 1333 1234 1115 1038 994 611 461 356 319 869 552 682
1058 1151 1335 1561 1452 1683 2301 2322 2254 2226 2254 2395 2400 2391 2322 2162 1866 1563 1335 1088 1036 846 832 818 578 1341 1090 398 1207 783 511 353
1001 801 1005 1127 1194 1234 1752 1802 1827 1991 1914 1916 2388 2472 2260 2203 2352 2112 2194 1048 1674 988 1121 1271 1210 1239 1087 1041 598 461 283 340
1320 1132 687 799 894 1114 1353 1485 1667 1723 1482 1707 1659 1913 2066 1955 1801 1892 2067 1612 1360 1614 1312 1308 1009 978 1038 789 339 274 167 217
1748 1333 1113 933 809 1030 1175 1341 1390 1393 1497 1452 1870 1692 1543 1414 1433 1237 1599 1298 1061 1100 1009 1010 892 851 930 659 327 238 60 116
781 1701 1487 1290 1418 1156 1072 1236 1461 1343 1363 1386 1763 1627 1563 1300 898 923 732 744 624 539 321 623 693 635 457 286 291 213 12 40
0 697 1947 1614 1512 1596 1434 1315 1211 1107 1172 1454 1516 1559 1508 1197 921 793 636 420 286 36 15 31 334 616 584 202 258 31 3 15
0 0 984 1970 1884 1544 1721 1476 1247 1103 980 1225 1502 1342 1190 958 866 705 720 319 61 4 5 6 107 106 75 85 425 25 5 23
0 0 0 1413 1922 2083 1893 1487 1473 1184 1217 1117 1362 1195 840 754 640 560 678 341 142 23 10 13 68 116 127 125 130 65 35 63
0 0 0 257 1838 1998 2023 1745 1763 1754 1430 1123 1143 1195 645 545 404 428 572 372 160 61 4 12 102 130 142 141 127 93 66 62
0 0 0 0 1807 1843 1485 1379 1547 1635 1601 1260 1212 1019 592 372 249 259 330 334 175 106 11 13 30 86 38 10 7 21 36 61
0 0 0 0 527 1860 1870 1472 1592 1826 1604 1273 1218 930 572 301 261 234 246 207 183 152 60 8 30 75 24 2 6 4 3 46
0 0 0 0 6 1657 2001 1804 1811 1484 1559 1316 1250 1036 592 426 393 354 248 239 159 169 138 28 20 79 8 8 3 2 3 4
0 1 2 0 1 1186 1846 1508 1356 1706 1810 1450 1245 741 446 318 377 433 263 219 184 244 165 77 73 62 42 93 2 1 3 6
0 0 0 1 21 872 2113 1716 1990 2033 1890 1312 1009 976 448 66 0 134 239 250 268 302 110 91 67 71 11 0 0 0 0 1
1 2 2 0 55 953 1918 1802 1840 1843 1538 1324 1410 840 109 20 57 217 220 200 316 393 208 111 89 78 12 2 0 0 0 9
6 7 4 1 4 1438 1798 1708 1683 1749 1559 1332 1009 665 181 135 331 199 194 303 272 383 148 246 83 83 8 7 1 2 56 38
6 9 5 6 1 1571 1541 1241 1232 1570 1505 883 781 592 538 361 283 365 324 291 152 137 111 108 143 41 46 9 3 1 1 3

GFSFLT2_con_sbcape_102.txt.gz
CAPE
2625 2662 2309 1609 1751 1807 1714 1631 1690 1805 2064 2343 2557 2464 2320 2261 2364 2426 2395 2361 2199 2171 1701 1440 1391 1360 1222 1031 970 1161 1442 1209
2651 2652 2529 2709 2526 1570 1546 1572 1588 1669 1838 2032 2154 2189 2196 2154 2227 2266 2309 2136 2047 1863 1381 1363 1328 1291 1028 777 793 951 1435 1436
2301 2216 2200 2305 2704 2412 1530 1438 1475 1569 1765 1817 1953 2429 2695 2607 2332 2147 2221 1901 1865 1506 1286 1305 1232 1154 821 553 464 1607 1723 1646
2349 2325 2165 2090 1888 2242 2598 2724 2453 2366 2286 2395 2431 2404 2574 2174 2114 1963 1878 1539 1430 1378 1165 959 1033 1784 1483 593 1513 1251 1732 1262
2106 2412 2527 2470 2052 2121 2166 2545 2635 2763 2744 2753 2646 2634 2728 2548 2598 2564 2596 1456 2090 1451 1583 1690 1445 1542 1678 1305 1223 1240 1264 988
1731 2095 2376 2416 2316 2040 1998 2159 2258 2224 2396 2676 2956 2791 2685 2643 2398 2421 2519 2314 2086 2030 1740 1690 1694 1491 1444 1398 1177 1232 902 614
9 1599 2170 2255 2315 2039 2104 2026 2237 2303 2258 2107 2329 2348 2618 2488 2243 2399 2466 2158 2270 2050 1936 1781 1786 1524 1397 1235 1076 1141 801 565
0 15 1373 2010 2090 2071 1999 1931 2061 2018 1859 2020 2191 2245 2553 2219 2319 2238 2175 2158 2218 2058 1920 1879 1766 1498 1325 1141 1111 918 814 529
0 0 5 1324 1949 2020 1978 1800 1892 1948 1789 1996 2044 2300 2377 2268 1862 1834 2090 2053 2091 1925 1851 1722 1451 1210 1207 1055 962 763 612 570
0 0 0 0 1017 1595 2086 2093 2042 1908 1862 1829 1944 2184 2156 2215 1720 1827 1581 1706 1384 1238 1002 849 866 1198 1109 1134 887 771 511 499
0 0 0 0 1 959 1584 2242 2401 2204 1956 1886 2115 2214 2117 2157 1808 1647 1569 1419 1305 958 817 691 796 1110 943 743 655 527 443 178
0 0 0 0 0 60 1119 1461 2335 2335 2169 1950 2040 2386 2164 2036 1879 1605 1429 1219 1421 1156 825 512 573 576 309 170 298 485 317 111
0 0 0 0 0 0 567 1306 1934 1952 2259 2235 2087 2109 2123 1880 1729 1349 1183 1157 1143 919 608 361 454 570 319 123 71 208 126 75
0 0 0 0 0 0 18 1027 1303 1596 1988 2631 2154 2087 2169 1831 1490 1137 1109 1124 983 1027 758 205 384 473 139 47 26 7 135 91
0 2 2 1 4 1 0 726 1507 1762 1929 2402 2342 2214 1961 1702 1311 947 976 1002 1129 1141 775 424 256 244 198 205 24 148 9 32
0 0 0 0 5 8 6 159 1481 1703 1817 2146 2144 1834 1620 1438 1070 809 720 897 955 1081 815 701 498 246 211 414 358 53 125 10
0 0 1 1 1 4 20 156 1833 1742 1921 1988 1811 1664 1432 1349 919 855 198 792 859 1040 1074 1132 908 382 240 237 277 204 312 100
1 0 1 2 4 5 8 481 1061 1979 1912 1850 1678 1482 1363 1281 1152 1180 809 661 705 589 800 1036 862 619 340 231 348 203 243 92
2 1 2 2 2 4 7 507 880 2249 1940 2074 1535 1348 1357 1348 1312 564 554 633 711 575 649 1124 861 607 348 121 100 102 156 40
3 2 4 5 7 9 10 1013 1388 2413 1999 1944 1644 1559 1647 1739 885 290 201 357 580 656 653 1220 972 926 382 248 121 75 384 10

GFSFLT2_con_sbcape_105.txt.gz
CAPE
2865 2979 2082 1567 1642 1643 1610 1625 1866 2135 2382 2521 2685 2628 2500 2357 2444 2580 2715 2596 2434 2428 2127 1738 1486 1390 1377 1233 1182 1288 1426 1163
3113 3053 2692 2577 2334 1505 1477 1490 1556 1758 2057 2309 2469 2444 2328 2220 2297 2425 2539 2417 2340 2315 2072 1557 1380 1262 1182 1005 1047 1085 1520 1395
3044 2980 2966 2904 2804 2225 1498 1439 1446 1509 1712 1861 2061 2819 2913 2733 2377 2231 2307 2230 2075 1979 1516 1436 1283 1202 1030 807 667 1457 1215 1297
2726 2787 2702 2793 2725 2960 2505 2278 2056 2009 1896 2134 2340 2311 2593 2433 2380 1973 2138 1971 1858 1582 1402 1364 1195 1733 1619 709 1408 1285 1724 1391
2428 2851 2740 2591 2594 2670 2790 2918 2674 2684 2613 2662 2477 2573 2805 2420 2495 2527 2763 1818 2413 1965 1972 2049 1782 1552 1888 1658 1401 1613 1498 1431
1843 2288 2766 3085 2979 2724 2813 2831 2886 2739 2703 3310 3245 2935 2971 2820 2166 2637 2856 2557 2415 2523 2345 2170 1968 1902 1830 1784 1790 1562 1327 1202
0 566 1871 2580 2797 2787 2718 2661 2629 2695 2732 2928 2669 2540 2927 2407 2379 2201 2545 2062 2613 2401 2123 2147 2117 1856 1855 1651 1585 1599 1456 738
0 0 27 1237 2128 2623 2575 2556 2476 2505 2437 2646 2707 2807 2871 2347 2351 2205 1965 2256 2840 2380 2332 2205 2215 2079 1954 1690 1657 1586 1327 1033
0 0 0 0 966 1790 2281 2304 2214 1987 2106 2523 2350 2488 3029 3008 2437 2531 2052 2223 2718 2600 2657 2404 2137 1803 1782 1873 1486 1631 1320 1041
0 0 0 0 0 198 1415 1590 2374 2107 2102 2435 2347 2410 2955 3130 2459 2259 2285 2189 2436 2466 2397 2392 2035 1965 1599 1454 1653 1457 1199 1035
0 0 0 0 0 0 212 1729 2096 2348 2402 2531 2644 2464 2432 2934 2619 2237 2411 2140 2266 2068 2126 2075 2015 1752 1523 1395 1411 1247 1196 830
0 0 0 0 0 0 0 113 1779 2181 2167 2759 2924 2867 2838 2932 2324 2359 2242 1806 2132 1653 1517 1611 1514 1623 1262 930 1035 1077 923 583
0 0 0 0 0 0 0 0 507 1539 1905 2363 2997 2824 2983 2687 2383 2443 2197 1651 2033 1542 1454 1495 1283 1315 1059 591 748 723 834 536
0 0 0 0 0 0 0 3 18 663 1683 2160 2644 2607 2678 2183 2308 2283 2157 1791 2059 1542 1432 1262 1190 975 670 105 16 3 141 389
0 0 0 0 2 1 0 0 17 218 1840 1971 2256 2785 2723 2176 2345 2381 2012 1849 1734 1505 1407 1047 916 810 521 353 57 144 6 127
0 0 0 0 3 5 7 6 0 14 1043 1675 2158 2448 2248 2326 2493 2006 1780 1810 1652 1509 1380 1224 1240 691 709 651 763 443 218 11
1 2 2 4 6 6 6 9 12 125 535 1823 2330 2565 2300 2347 2437 1943 1610 1504 1491 1311 1237 1359 1450 985 641 441 919 658 394 250
8 6 3 6 3 4 6 9 11 36 617 1616 2261 2636 2138 2064 1842 1717 1588 1802 1397 1277 1427 1672 1675 1362 1139 879 773 443 246 337
6 6 5 3 3 4 8 13 13 16 253 1206 2242 2406 1923 1646 1621 1372 1633 1448 484 244 573 1215 1555 1399 1205 1086 533 900 531 332
7 6 4 2 6 6 10 9 14 14 176 1176 1856 2225 2021 1433 1461 1314 1377 1273 912 1103 1442 1557 1340 1147 1195 1163 875 702 562 353

GFSFLT2_con_sbcape_108.txt.gz
CAPE
3089 2394 1851 1535 1576 1630 1756 1954 2159 2268 2321 2396 2539 2436 2372 2307 2232 2427 2641 2619 2422 2346 2296 1878 1457 1390 1444 1360 1218 1154 932 1010
3667 3163 2370 2081 1774 1410 1402 1609 1820 2096 2250 2311 2361 2291 2249 2206 2092 2271 2469 2474 2322 2332 2184 1843 1466 1280 1269 1191 1101 1145 956 977
2973 2912 2686 2640 2361 1770 1312 1431 1417 1646 1942 2092 1987 2557 2371 2268 2149 2025 2307 2300 2164 2100 2020 1738 1433 1243 1136 974 822 1169 1151 904
2980 2707 2631 2709 2681 2308 1902 1777 1659 1705 1813 1997 2418 2539 2732 2535 2247 1884 2068 2054 1891 1796 1598 1521 1152 1426 1072 807 929 1262 1048 1019
2999 2841 2431 2329 2357 2669 2359 2102 1896 1932 1948 2095 2147 2213 2448 2194 2317 1906 2029 1703 2027 1411 1168 1451 1687 1740 1636 1340 1271 1316 1132 873
2847 2836 2764 2481 2359 2422 2913 2901 2376 2319 2219 2401 2449 2243 2322 2528 2140 2348 2370 2224 2131 1910 1852 1905 1813 1734 1596 1682 1524 1292 1292 936
0 85 2079 2741 2200 2402 2501 2449 2603 2600 2740 2645 2427 2475 2490 2418 2236 2148 2341 2230 2168 1964 1913 1931 1821 1658 1653 1541 1527 1358 1230 849
0 0 0 0 2336 2216 2283 2403 2338 2709 2569 2587 2811 2792 2272 2265 2285 1793 2272 1989 1979 1994 1954 1864 1822 1617 1606 1524 1440 1386 1277 843
0 0 0 0 0 283 1979 2134 2221 2185 2379 2550 2331 2456 2645 2525 2364 2030 1780 1992 1633 2012 2037 2027 1838 1766 1627 1553 1394 1394 1314 1014
0 0 0 0 0 0 0 37 2158 2202 2019 2258 2460 2264 2144 2329 2335 1912 2187 1923 2014 2169 1995 2016 1892 1784 1586 1598 1436 1385 1324 907
0 0 0 0 0 0 0 0 1 1830 2097 1956 2308 2080 1966 2205 2276 2081 1980 1796 1878 2046 1879 1877 1864 1593 1588 1302 1162 1267 1136 934
0 0 0 0 0 0 0 0 0 13 1346 2136 2103 2169 2060 2128 2246 2138 2000 1897 1819 2110 1867 1846 1737 1651 1262 1268 1192 1085 918 705
0 0 0 0 0 0 0 0 0 0 325 1221 2012 2115 2123 2006 2100 2065 1848 1809 1737 1930 1613 1474 1373 1249 1169 1007 572 554 727 595
0 0 0 0 0 0 0 0 0 0 0 3 1055 1593 1759 2034 2113 2013 1740 1522 1487 1690 1358 1215 1167 1105 910 240 92 55 35 464
0 0 0 0 0 0 0 0 0 0 0 0 6 1366 1712 1844 2075 1948 1417 1103 512 1493 1330 1087 1046 996 655 271 39 56 36 115
0 0 0 0 0 0 2 3 3 0 0 0 4 1453 1478 1809 1906 1830 1401 1105 1023 853 1266 1065 801 824 879 586 553 293 120 12
0 0 0 0 0 0 2 2 6 4 0 0 0 25 1340 1651 1677 1717 1466 1166 856 1253 1118 977 721 617 825 726 599 697 544 248
0 0 0 1 0 0 1 3 4 8 6 2 0 4 508 1282 1551 1922 1731 1369 1244 1039 343 907 804 877 841 807 558 631 626 375
0 1 3 5 4 0 3 4 5 7 6 7 2 0 217 598 1380 1813 1651 1295 1167 1080 932 395 762 931 909 767 668 478 481 331
0 3 5 5 6 4 5 5 8 10 8 9 4 3 121 725 1030 1547 1394 1309 1298 1229 983 630 410 423 627 808 689 593 549 375

GFSFLT2_con_sbcape_111.txt.gz
CAPE
1603 1612 1591 1547 1616 1704 1975 2067 2079 2020 2062 2204 2372 2280 2168 2072 2026 2122 2295 2415 2425 2307 2274 1944 1411 1242 1312 1363 1257 1179 995 407
1823 1640 1447 1320 1279 1464 1653 1902 2003 2042 2044 2126 2262 2200 2105 2077 1975 2028 2237 2290 2348 2165 2057 1886 1347 1115 1109 1187 1161 1143 923 737
2488 2125 1737 1420 1291 1241 1357 1595 1802 1977 2041 2050 1841 1950 1979 2000 1884 1881 2095 2138 2176 2098 1995 1811 1411 1061 959 952 873 792 954 813
1919 2370 2108 1876 1982 1355 1079 1251 1264 1426 1716 1703 1915 1995 1958 2145 1891 1748 1840 1937 1934 1860 1803 1566 1227 864 735 758 598 813 961 846
2125 2246 2220 2328 2250 1363 1215 1172 1084 1133 1334 1535 1815 2123 2107 1985 1863 1660 1460 1688 1599 1441 1384 1119 1002 936 790 635 583 756 781 757
2402 2178 1873 1755 1757 2216 1734 1464 1186 1239 1227 1389 1530 1640 1687 2029 1807 1643 1524 1596 1536 1404 1227 1123 1149 1126 1040 887 793 797 809 661
0 1098 1360 1638 1751 1877 2303 2032 1629 1555 1430 1477 1716 1545 1685 1588 1781 1838 1770 1667 1534 1459 1312 1341 1277 1248 1179 1027 1060 932 867 566
0 0 0 0 23 484 1363 1523 1582 1800 1772 1647 1763 1849 1655 1713 1633 1527 1855 1849 1658 1567 1349 1407 1404 1305 1128 1028 1005 917 859 371
0 0 0 0 0 0 0 80 1213 1141 1464 1584 1951 1801 1683 1738 1519 1341 1755 1791 1623 1516 1148 1199 1312 1148 1078 958 886 856 806 517
0 0 0 0 0 0 0 0 0 44 1039 1415 1413 1733 1792 1812 1622 1306 900 1620 1193 1486 1323 1229 1178 1066 959 893 887 839 840 643
0 0 0 0 0 0 0 0 0 0 0 640 1340 1633 1562 1617 1533 1631 1166 1102 1194 1295 1223 1316 1138 997 846 867 877 859 801 583
0 0 0 0 0 0 0 0 0 0 0 0 880 1559 1738 1342 1278 1457 1349 1234 1006 1139 1426 1129 1307 1125 1087 834 649 816 673 476
0 0 0 0 0 0 0 0 0 0 0 0 0 283 1421 1564 1459 1406 1541 1529 1313 1078 1194 1268 891 871 608 376 137 408 516 474
0 0 0 0 0 0 0 0 0 0 0 0 0 0 0 1247 1589 1535 1656 1467 1223 991 1084 895 704 817 598 358 415 99 109 502
0 0 0 0 0 0 0 0 0 0 0 0 0 0 0 0 1121 1495 1618 1374 1264 988 629 633 366 633 361 211 160 150 13 16
0 0 0 0 0 0 0 0 0 0 0 0 0 0 0 0 15 910 1387 1269 1025 532 0 0 0 241 390 322 38 6 24 43
0 0 0 0 0 0 0 0 0 0 0 0 0 0 0 0 0 132 733 1066 832 22 0 37 233 421 14 463 443 105 14 1
0 0 0 0 0 0 0 0 0 1 1 2 2 0 0 0 0 4 611 699 768 432 168 328 459 462 473 534 466 404 413 183
0 0 0 0 0 1 0 0 1 2 4 5 7 7 3 1 1 0 237 577 586 507 666 689 637 571 580 447 411 393 176 259
0 0 0 0 2 2 0 0 5 5 9 11 10 8 8 1 3 1 9 411 711 684 700 393 277 624 528 529 497 344 273 233

GFSFLT2_con_sbcape_114.txt.gz
CAPE
1382 1421 1510 1505 1591 1726 1877 1952 1940 1904 1947 2090 2209 2064 1926 1870 1877 1934 2013 2178 2368 2296 2116 2069 1912 1644 1389 1375 1159 1030 528 478
1345 1322 1360 1316 1297 1475 1728 1881 1900 1863 1849 1949 2050 1953 1851 1808 1747 1833 1956 2030 2258 2190 2009 2017 1640 1276 1206 1194 1132 934 467 440
1367 1339 1227 1096 1110 1212 1454 1791 1855 1824 1801 1815 1759 1861 1807 1790 1654 1646 1810 1857 1947 2031 1941 1815 1587 1181 1056 1036 973 667 613 493
1870 1548 1347 1107 1361 1184 1122 1417 1566 1683 1841 1791 1790 1753 1732 1909 1755 1569 1618 1632 1641 1758 1786 1616 1316 967 792 866 602 605 632 527
2017 1994 1589 1393 1641 993 894 951 974 1176 1501 1456 1611 1434 1736 1755 1641 1449 1248 1362 1359 1410 1384 1224 1070 848 616 555 512 534 518 531
1795 1683 1791 1710 1605 1233 941 911 783 904 1009 1234 1372 1502 1690 1847 1743 1469 1232 1293 1359 1375 1361 1197 996 866 742 622 550 520 474 449
871 784 389 765 1634 1673 1683 1275 985 903 870 1051 1334 1522 1563 1759 1811 1519 1367 1290 1344 1268 1201 1090 1040 986 985 854 730 623 607 459
0 0 0 0 0 0 90 739 1023 979 1076 980 1224 1246 1359 1414 1693 1606 1491 1407 1300 1272 1147 1126 1099 1070 1012 839 910 775 662 525
0 0 0 0 0 0 0 0 0 149 984 996 1133 1363 1305 1354 1284 1357 1680 1567 1382 1296 1134 1023 1063 985 1024 856 758 734 604 397
0 0 0 0 0 0 0 0 0 0 0 4 668 1395 1488 1118 1265 1192 1092 1573 1471 1414 1276 1032 1089 1038 985 708 563 544 512 338
0 0 0 0 0 0 0 0 0 0 0 0 0 207 904 1150 1128 898 698 893 1184 1408 1345 1100 995 910 924 507 505 509 469 366
0 0 0 0 0 0 0 0 0 0 0 0 0 0 0 463 942 1046 725 484 699 899 1297 1075 1005 966 882 611 462 439 386 410
0 0 0 0 0 0 0 0 0 0 0 0 0 0 0 0 134 918 748 842 883 650 723 656 647 723 382 175 90 323 405 379
0 0 0 0 0 0 0 0 0 0 0 0 0 0 0 0 0 0 854 996 764 438 730 712 774 492 820 672 333 258 174 244
0 0 0 0 0 0 0 0 0 0 0 0 0 0 0 0 0 0 0 387 1143 1000 416 613 562 246 10 70 30 250 86 11
0 0 0 0 0 0 0 0 0 0 0 0 0 0 0 0 0 0 0 0 222 948 442 432 84 0 1 1 3 5 5 11
0 0 0 0 0 0 0 0 0 0 0 0 0 0 0 0 0 0 0 0 0 695 334 0 0 0 0 0 0 14 0 0
0 0 0 0 0 0 1 0 0 1 1 2 2 3 0 0 1 1 2 2 0 253 341 25 0 0 0 0 53 196 5 0
0 0 0 0 0 0 0 0 3 5 5 6 6 4 4 5 5 7 2 2 3 26 19 0 0 0 0 0 19 38 108 122
0 0 0 0 0 0 1 1 5 6 6 6 6 7 8 9 7 11 9 4 3 4 216 56 0 102 194 49 29 174 246 200

GFSFLT2_con_sbcape_117.txt.gz
CAPE
1222 1412 1537 1627 1752 1810 1820 1738 1708 1721 1800 1938 2039 1942 1903 1898 1892 1924 2038 2416 2299 2526 2127 1890 1783 1572 1381 1089 879 925 672 325
1176 1220 1384 1309 1278 1440 1557 1700 1700 1677 1713 1848 1936 1834 1726 1751 1758 1810 1901 2018 2118 2235 2012 1858 1812 1587 1233 1106 958 862 524 264
1147 1169 1199 1107 1091 1226 1416 1568 1608 1596 1639 1697 1675 1681 1575 1526 1519 1562 1762 1745 1955 2130 1913 1845 1618 1246 1006 881 733 513 429 283
1308 1146 1081 978 1253 1149 1180 1351 1527 1502 1565 1483 1611 1668 1526 1602 1520 1417 1531 1550 1564 1847 1838 1636 1314 864 721 712 442 428 420 448
1691 1326 1193 1114 1283 885 833 967 1191 1447 1383 1531 1642 1338 1387 1517 1551 1342 1179 1237 1240 1320 1391 1271 1100 894 599 494 356 316 332 350
1772 1730 1621 1371 1507 966 716 890 827 890 1134 1215 1347 1431 1381 1332 1440 1406 1210 1142 1250 1225 1345 1373 1093 893 644 480 366 258 230 288
845 149 325 1068 1217 1007 1306 891 722 679 727 992 1170 1234 1334 1244 1323 1305 1216 1141 1144 1168 1323 1297 1100 872 690 546 430 311 283 237
0 0 0 0 0 0 0 26 271 785 682 653 863 1045 1175 1279 1442 1226 1236 1108 1071 1113 1178 1205 1210 1034 900 681 601 453 314 268
0 0 0 0 0 0 0 0 0 0 0 17 274 748 1025 1046 1115 1449 1522 1191 1063 1094 938 952 1032 978 1005 756 696 614 523 324
0 0 0 0 0 0 0 0 0 0 0 0 0 0 19 776 1007 1024 1182 1100 962 1110 1099 1106 1081 970 909 711 640 604 504 343
0 0 0 0 0 0 0 0 0 0 0 0 0 0 0 0 50 937 922 774 830 1123 1170 1220 1101 990 921 732 510 498 504 420
0 0 0 0 0 0 0 0 0 0 0 0 0 0 0 0 0 4 327 370 583 534 856 926 839 838 803 734 457 404 416 444
0 0 0 0 0 0 0 0 0 0 0 0 0 0 0 0 0 0 0 81 433 284 395 442 531 429 308 73 45 86 155 287
0 0 0 0 0 0 0 0 0 0 0 0 0 0 0 0 0 0 0 0 0 418 437 481 277 315 511 367 265 61 19 152
0 0 0 0 0 0 0 0 0 0 0 0 0 0 0 0 0 0 0 0 0 0 339 626 624 134 289 224 0 146 21 0
0 0 0 0 0 0 0 0 0 0 0 0 0 0 0 0 0 0 1 1 1 0 0 364 560 88 0 0 0 0 0 0
0 0 0 0 0 0 0 0 2 1 0 0 0 1 0 0 1 1 0 0 0 2 0 1 404 443 0 1 1 0 0 0
0 0 0 0 0 0 0 0 0 2 1 4 4 2 3 4 6 6 6 6 5 2 2 12 141 55 1 0 0 0 1 0
0 0 0 0 0 0 0 1 1 2 4 5 5 5 6 7 7 7 7 9 10 8 6 10 35 48 0 0 0 0 0 0
0 0 0 0 0 2 1 2 4 4 4 6 8 9 8 8 9 9 7 10 9 9 7 3 13 47 0 0 0 0 3 4

GFSFLT2_con_sbcape_120.txt.gz
CAPE
1209 1508 1819 1940 1982 1815 1669 1744 1724 1681 1728 1872 1989 1989 1923 1798 1903 2119 2343 2361 2367 2156 2015 1810 1570 1406 1205 943 758 758 531 228
1028 1122 1446 1485 1439 1644 1688 1656 1660 1618 1654 1741 1853 1815 1791 1796 1711 1826 2008 2271 2260 2297 2039 1754 1588 1440 1232 991 771 680 367 172
958 1008 1185 1166 1152 1213 1404 1578 1626 1548 1575 1642 1608 1507 1447 1510 1563 1646 1800 1954 1934 2061 1897 1657 1523 1357 1077 962 812 434 339 91
1045 951 1028 1027 1265 1205 1261 1315 1435 1448 1615 1547 1481 1628 1563 1406 1402 1482 1604 1493 1536 1731 1761 1554 1273 861 690 676 483 414 309 232
1462 966 896 979 1261 985 872 987 1362 1398 1544 1592 1624 1544 1454 1386 1390 1209 992 1154 1102 1247 1361 1144 1037 751 378 315 309 331 266 252
1477 1201 1174 1132 1194 969 767 902 1002 1144 1328 1400 1374 1326 1323 1268 1289 1273 1153 1078 1102 1037 1262 1300 961 833 504 294 221 267 301 259
1164 1734 1582 1446 1579 1420 959 836 820 799 928 1151 1253 1236 1210 1193 1274 1216 1133 1042 1023 1009 1093 1246 1186 999 698 451 273 233 241 219
0 1 12 0 0 0 0 0 119 447 357 523 725 857 904 976 1165 1244 1163 1021 930 1004 1005 1062 941 1011 903 593 455 309 200 174
0 0 0 0 0 0 0 0 0 0 0 0 0 1 11 134 881 1106 1210 1080 675 940 827 972 1004 887 826 860 659 382 239 193
0 0 0 0 0 0 0 0 0 0 0 0 0 0 0 0 0 28 826 1298 967 890 888 907 969 887 828 815 681 635 415 313
0 0 0 0 0 0 0 0 0 0 0 0 0 0 0 0 1 3 4 160 772 769 922 799 891 958 875 729 574 477 442 340
0 0 0 0 0 0 0 0 0 0 0 0 0 0 0 0 0 0 0 1 164 411 322 461 542 649 795 454 597 405 342 243
0 0 0 0 0 0 0 0 0 0 0 0 0 0 0 0 0 0 0 0 0 1 286 0 0 163 172 99 157 147 152 142
0 0 0 0 0 0 0 0 0 0 0 0 0 0 0 0 0 0 0 1 0 0 0 359 182 220 96 12 0 0 12 107
0 0 0 0 0 0 0 0 0 0 0 0 0 0 0 0 0 0 0 1 1 1 0 0 340 141 295 94 16 37 2 1
0 1 0 0 0 0 0 0 0 0 0 0 0 0 0 0 3 3 4 4 4 1 2 1 5 96 36 234 6 0 0 1
1 1 2 0 0 0 0 0 0 0 0 0 0 0 1 0 5 5 5 6 5 4 1 1 2 6 14 0 0 0 0 0
2 0 0 0 0 1 1 1 1 2 2 2 2 3 1 6 5 5 5 6 6 8 10 6 5 3 16 12 2 1 0 0
2 1 0 2 1 1 0 1 1 3 3 4 5 6 6 6 6 6 5 7 6 8 8 9 8 6 3 18 29 3 0 0
0 0 1 1 2 2 4 5 5 3 4 5 6 7 7 6 6 6 7 6 8 8 9 8 10 8 7 1 39 30 0 0

GFSFLT2_con_sbcape_123.txt.gz
CAPE
2257 2519 2388 1804 1805 1857 1859 1882 1787 1733 1764 1841 2044 2153 2243 2162 2168 2338 2492 2467 2376 2262 2160 1643 1409 1206 968 794 689 775 1218 1452
2165 2121 2595 2729 2643 1592 1486 1615 1717 1703 1701 1762 1805 1858 1865 1884 1958 2118 2305 2240 2154 2097 1940 1595 1473 1286 1112 956 682 655 1193 1328
2321 2142 2209 2467 2497 2307 1643 1542 1587 1560 1675 1643 1786 2235 2195 2107 1834 1785 1932 2024 2033 2053 1817 1708 1552 1394 1298 1058 706 1344 1448 1209
2275 2290 2280 2247 2060 2247 2430 2463 2539 2562 2426 2390 2332 2182 2167 1973 1777 1468 1517 1550 1700 1774 1868 1535 1319 2006 1751 969 1502 1464 1464 1315
29 2418 2334 2337 2335 2415 2256 2262 2259 2237 2311 2134 1999 2107 2188 1885 1672 1955 2153 1456 2109 1868 2233 2352 2300 2299 1986 1773 1561 1540 1425 1352
0 1799 2412 2403 2415 2456 2019 1804 1649 1862 1859 2044 2229 2171 2010 1869 1735 1467 1526 1737 2009 2131 2069 2255 2402 2310 2302 1925 1696 1457 1337 1297
0 880 2543 2497 2460 2463 2297 1971 1221 1453 1591 1766 1953 1952 1984 1821 1708 1817 1886 1502 1358 1447 1831 1744 1588 1921 2074 2204 1831 1650 1514 1468
0 0 10 1535 1906 2033 1374 1003 727 752 620 782 1410 1379 1332 1471 1712 1761 1741 1561 1539 1644 1343 1386 1337 1505 1393 1663 2087 1791 1587 1554
0 0 0 0 0 0 7 0 2 0 1 0 0 0 21 326 1143 1045 1571 1560 1318 1578 1153 1303 1159 1263 1402 1236 1262 1574 1646 1539
0 0 0 0 0 0 0 0 1 0 0 0 0 0 0 1 2 3 0 161 1598 1711 1131 947 851 1128 1096 1190 1174 1150 1008 1536
0 0 0 0 0 0 0 0 0 0 0 0 0 0 0 0 0 1 0 6 5 796 1388 1153 1033 1127 1269 1269 1324 1112 835 895
0 0 0 0 0 0 0 0 0 0 0 0 0 0 0 0 0 0 0 0 0 124 246 791 1096 1237 1061 1013 1151 684 1184 828
0 0 0 0 0 0 0 0 0 0 0 0 0 0 0 0 0 0 0 0 0 0 0 86 613 605 617 352 173 256 329 357
0 0 0 0 0 1 2 1 0 0 0 0 0 2 3 1 4 5 5 4 2 0 0 0 439 290 301 367 86 232 199 232
0 0 0 0 0 0 0 0 0 0 0 0 1 4 5 8 4 1 1 4 3 1 6 7 5 224 545 263 17 3 218 76
0 0 1 2 1 0 0 0 1 6 5 4 4 5 9 2 4 6 7 10 8 7 7 2 7 12 54 447 773 195 254 161
0 0 1 1 4 5 4 0 0 4 8 7 5 7 3 5 7 7 7 9 9 8 10 12 14 5 13 25 349 493 225 15
0 0 0 0 1 3 4 5 2 4 5 5 3 4 5 2 6 6 6 8 9 10 8 7 13 19 13 16 13 111 57 39
7 2 2 2 4 1 4 4 5 6 6 7 9 5 6 7 5 5 5 6 8 10 11 9 10 13 14 15 12 16 108 36
3 3 5 3 7 5 4 9 8 5 5 6 7 8 7 5 5 4 4 4 9 6 12 13 13 17 14 15 17 23 33 123